Regional Weather Roundup
Issued by NWS

Home | Current Version | Previous Version | Text Only | Print | Product List | Glossary On
Versions: 1 2 3 4 5 6 7 8 9 10 11 12 13 14 15 16 17 18 19 20 21 22 23 24 25 26 27 28 29 30 31 32 33 34 35 36 37 38 39 40 41 42 43 44 45 46 47 48 49 50
000
ASUS43 KBIS 231320
RWRND

NORTH DAKOTA REGIONAL WEATHER ROUNDUP
NATIONAL WEATHER SERVICE BISMARCK ND
800 AM CDT TUE SEP 23 2014

NOTE: "FAIR" INDICATES FEW OR NO CLOUDS BELOW 12,000 FEET WITH NO
SIGNIFICANT WEATHER AND/OR OBSTRUCTIONS TO VISIBILITY.


NDZ001>003-009>011-017-231400-
NORTHWEST NORTH DAKOTA

CITY           SKY/WX    TMP DP  RH WIND       PRES   REMARKS
WILLISTON      CLEAR     47  45  93 N3        29.85S
MINOT          CLEAR     51  48  89 SE3       29.88S
MINOT AFB      CLEAR     49  49  99 SE6       29.88S
$$

NDZ018>021-031>035-040>046-231400-
SOUTHWEST NORTH DAKOTA

CITY           SKY/WX    TMP DP  RH WIND       PRES   REMARKS
BISMARCK       CLEAR     60  55  83 S12       29.92S
DICKINSON      CLEAR     51  48  89 S8        29.87R
GARRISON         N/A     54  52  93 SE5       29.89S
HETTINGER ARPT PTCLDY    53  51  93 SE5       29.91S
$$

NDZ004>008-012>016-024-026-027-054-231400-
NORTHEAST NORTH DAKOTA

CITY           SKY/WX    TMP DP  RH WIND       PRES   REMARKS
GRAND FORKS    CLEAR     53  49  86 S10       30.02S
GRND FRKS AFB  CLEAR     53  51  95 S8        30.02S
DEVILS LAKE    CLEAR     57  48  72 S8        29.95S
$$

NDZ022-023-025-028>030-036>039-047>053-231400-
SOUTHEAST NORTH DAKOTA

CITY           SKY/WX    TMP DP  RH WIND       PRES   REMARKS
FARGO          CLEAR     57  48  72 SE13      30.05R
JAMESTOWN      CLEAR     54  51  90 S6        29.98S
$$



USA.gov is the U.S. government's official web portal to all federal, state and local government web resources and services.